Kalaeloa, HI

1:10 AM HST on June 27, 2017 (GMT -1000)
Kalaeloa (John Rodgers Field)

Weather History for PHJR - December, 2012

Change the Weather History Date:

Thursday, December 13, 2012

  Actual Average (PHHI) Record (PHHI)
Temperature  
Mean Temperature 75 °F -  
Max Temperature 80 °F 74 °F 82 °F (2002)
Min Temperature 70 °F 63 °F 59 °F (2004)
Cooling Degree Days 10    
Growing Degree Days 25 (Base 50)    
Moisture  
Dew Point 63 °F    
Average Humidity 66    
Maximum Humidity 81    
Minimum Humidity 54    
Precipitation  
Precipitation 0.00 in - - ()
Sea Level Pressure  
Sea Level Pressure 30.14 in    
Wind  
Wind Speed 8 mph (ENE)    
Max Wind Speed 16 mph    
Max Gust Speed 26 mph    
Visibility 10 miles    
Events      
Averages and records for this station are not official NWS values.
T = Trace of Precipitation, MM = Missing Value Source: NWS Daily Summary

Daily Weather History Graph

Daily Weather History Graph

Search for Another Location

Airport or City:

Trip Planner

Search our weather history database for the weather conditions in past years. The results will help you decide how hot, cold, wet, or windy it might be!

Date:

Astronomy

Dec. 13, 2012 Rise Set
Actual Time 7:01 AM HST 5:52 PM HST
Civil Twilight 6:37 AM HST 6:16 PM HST
Nautical Twilight 6:09 AM HST 6:44 PM HST
Astronomical Twilight 5:42 AM HST 7:11 PM HST
Moon 7:23 AM HST (12/13) 6:44 PM HST (12/13)
Length of Visible Light 11h 39m
Length of Day
10h 51m
New Moon, 0% of the Moon is Illuminated
Dec 13
New Moon
Dec 19
First Quarter
Dec 28
Full
Jan 4
Last Quarter
Jan 11
New

Hourly Weather History & Observations

Time (HST) Temp. Heat Index Dew Point Humidity Pressure Visibility Wind Dir Wind Speed Gust Speed Precip Events Conditions
12:53 AM 73.0 °F - 62.1 °F 68% 30.15 in 10.0 mi ENE 8.1 mph - N/A   Clear
1:53 AM 73.0 °F - 62.1 °F 68% 30.14 in 10.0 mi Variable 4.6 mph - N/A   Clear
2:53 AM 73.0 °F - 62.1 °F 68% 30.13 in 10.0 mi ENE 8.1 mph - N/A   Clear
3:53 AM 70.0 °F - 64.0 °F 81% 30.14 in 10.0 mi Variable 5.8 mph - N/A   Mostly Cloudy
4:53 AM 71.1 °F - 62.1 °F 73% 30.14 in 10.0 mi Variable 3.5 mph - N/A   Partly Cloudy
5:53 AM 70.0 °F - 64.0 °F 81% 30.14 in 9.0 mi Variable 4.6 mph - N/A   Mostly Cloudy
6:53 AM 70.0 °F - 62.1 °F 76% 30.14 in 10.0 mi Variable 5.8 mph - N/A   Clear
7:53 AM 73.9 °F - 63.0 °F 68% 30.15 in 10.0 mi East 9.2 mph - N/A   Clear
8:53 AM 75.0 °F - 63.0 °F 66% 30.15 in 10.0 mi East 12.7 mph 20.7 mph N/A   Partly Cloudy
9:53 AM 79.0 °F - 63.0 °F 58% 30.16 in 10.0 mi East 11.5 mph 23.0 mph N/A   Scattered Clouds
10:53 AM 78.1 °F - 64.0 °F 62% 30.15 in 10.0 mi East 11.5 mph 21.9 mph N/A   Mostly Cloudy
11:53 AM 80.1 °F 81.7 °F 64.0 °F 58% 30.13 in 10.0 mi East 16.1 mph 26.5 mph N/A   Mostly Cloudy
12:53 PM 79.0 °F - 62.1 °F 56% 30.11 in 10.0 mi East 10.4 mph 25.3 mph N/A   Overcast
2:53 PM 80.1 °F 81.5 °F 63.0 °F 56% 30.08 in 10.0 mi East 11.5 mph 20.7 mph N/A   Partly Cloudy
3:53 PM 79.0 °F - 61.0 °F 54% 30.09 in 10.0 mi ENE 9.2 mph 20.7 mph N/A   Mostly Cloudy
4:53 PM 78.1 °F - 62.1 °F 58% 30.09 in 10.0 mi Variable 4.6 mph - N/A   Clear
5:53 PM 75.0 °F - 60.1 °F 60% 30.12 in 10.0 mi ENE 8.1 mph 17.3 mph N/A   Clear
6:53 PM 75.0 °F - 61.0 °F 62% 30.13 in 10.0 mi ENE 9.2 mph 18.4 mph N/A   Clear
7:53 PM 75.0 °F - 60.1 °F 60% 30.15 in 10.0 mi East 9.2 mph 17.3 mph N/A   Clear
8:53 PM 73.9 °F - 62.1 °F 66% 30.16 in 10.0 mi ENE 8.1 mph - N/A   Partly Cloudy
9:53 PM 75.0 °F - 64.0 °F 69% 30.17 in 10.0 mi ENE 6.9 mph - N/A   Partly Cloudy
10:53 PM 73.9 °F - 63.0 °F 68% 30.17 in 10.0 mi ENE 6.9 mph 19.6 mph N/A   Partly Cloudy
11:53 PM 73.0 °F - 64.0 °F 73% 30.17 in 10.0 mi Variable 5.8 mph 19.6 mph N/A   Mostly Cloudy